Location: Unspecified
(0.0000°N, 0.0000°E)
Time: 07:28:23
(UTC+00:00)

Vanguard 2 - Pass Details

Date: 21 December 2018
Orbit: 552 x 2939 km, 32.9° (Epoch: 15 June)

Event Time Altitude Azimuth Distance (km) Brightness Sun altitude
Rises 14:52:50 0° 251° (WSW) 4,454 12.2 41.6°
Reaches altitude 10° 14:56:48 10° 260° (W) 3,060 11.6 40.7°
Maximum altitude 15:02:47 30° 319° (NW) 1,477 9.4 39.5°
Drops below altitude 10° 15:07:00 10° 21° (NNE) 2,105 9.5 38.5°
Sets 15:09:15 0° 33° (NNE) 2,868 10.0 38.1°
